FENGYUN 1C DEB

Satellite information

Favourite Embed

Satellite Type and Status

DEBRISIN ORBIT

Key statistics

Satellite FENGYUN 1C DEB at a glance.

Uptime

9554

Days in orbit

Revolutions

≈ 14.0

Per day

Orbit

SSO

Sun Synchronous Orbit

Inclination

98.4

Latest

Satellite identification and parameters

Extended collection of information and parameters for FENGYUN 1C DEB.

Object identification

Identified? True

Debris? True

Object name: FENGYUN 1C DEB

International designator: 1999-025BMG

Object number (NORAD): 31250

Object ID (CCSDS): 31250

Country: PEOPLES REPUBLIC OF CHINA (PRC)

Current information (Y/N): Y

RCS size: SMALL

Orbital parameters

Period: 102.676 minutes

Inclination: 98.405 deg

SMA: 7263.372 km

Apoapsis: 983.703 km

Periapsis: 786.772 km

RAAN: 47.9123 deg

Eccentricy: 0.0135564

Argument of periapsis: 33.9401 deg

Mean anomaly: 327.0349 deg

Mean motion: 14.02475541 rev/day

Mean motion (dot): 0.00001039 rev/day2

B* drag term: 0.00064615 1/REarth

Two-line elements (TLE)

Creation date: July 4, 2025, 6:39 p.m.

Reference frame: TEME

Reference center: EARTH

Epoch: July 4, 2025, 10:14 a.m. UTC

TLE line 0: 0 FENGYUN 1C DEB

TLE line 1: 1 31250U 99025BMG 25185.42684334 .00001039 00000-0 64615-3 0 9999

TLE line 2: 2 31250 98.4050 47.9123 0135564 33.9401 327.0349 14.02475541932565

Live tracking on map

Real-time ground track for satellite FENGYUN 1C DEB.

In-orbit conjunctions

A list of the most updated potential collisions computed for object FENGYUN 1C DEB.

Target Orbit TCA Probability of collision Miss distance Type
SL-18 R/B LEO 2025-04-11 11:37:23 0.0001727449 95.0 (m) ROCKET BODY
GEOS 3 SSO 2025-03-25 07:47:06 0.0001082288 995.0 (m) PAYLOAD
COSMOS 886 DEB MEO 2024-06-24 16:45:01 0.0001957681 56.0 (m) DEBRIS

Associated space launch

Chinese polar orbiting meteorological satellite

FENGYUN 1C DEB was lifted into orbit during the mission ‘Long March 4B | Feng Yun 1C’, on board a Long March 4B space rocket.

The launch took place on May 10, 1999, 1:33 a.m. from Launch Complex 7.

For more information about the launch, click the button.

Launch to space Long March 4B | Feng Yun 1C
Long March 4B | Feng Yun 1C

Agency: N/A

Status: Launch Successful

Launch date: May 10, 1999, 1:33 a.m. UTC

Rocket: Long March 4B

Launch pad: Launch Complex 7

Location: Taiyuan Satellite Launch Center, People's Republic of China

...

Latest news about this satellite

There are no fresh news available about this satellite. Check back as we update our databases every day.


Newsletter sign-up

Weekly statistics, charts and insights to help you stay on top of the space industry.